Tracking 28335 objects as of 4-Dec-2023
HD Live streaming from Space Station
objects crossing your sky now

STARLINK-5668

Track STARLINK-5668 now!
10-day predictions
STARLINK-5668 is classified as:


NORAD ID: 55350
Int'l Code: 2023-013V
Perigee: 565.3 km
Apogee: 567.3 km
Inclination: 43.0 °
Period: 95.8 minutes
Semi major axis: 6937 km
RCS: Unknown
Launch date: January 26, 2023
Source: United States (US)
Launch site: AIR FORCE EASTERN TEST RANGE (AFETR)
Your satellite tracking list
Your tracking list is empty




NASA's NSSDC Master Catalog

Two Line Element Set (TLE):
1 55350U 23013V   23337.52754254 -.00006253  00000-0 -44847-3 0  9997
2 55350  43.0050 114.8272 0001493 280.4721  79.5954 15.02514098 47283
Source of the keplerian elements: AFSPC